This is the latest recevied weather packets stored in our database for station/object KD9ZDW. If no packets are shown the sender has not sent any weather packets the latest 10 day(s).
| Time | Temp. | Humidity | Pressure | Rain* | Wind** | Luminosity | Snow |
|---|---|---|---|---|---|---|---|
| 1777231568 | 15° C | 71% | 1021.1 hPa | 0 mm | - | 635 W/m² | - |
| 1777231263 | 14.44° C | 71% | 1021 hPa | 0 mm | - | 675 W/m² | - |
| 1777230960 | 14.44° C | 71% | 1021.1 hPa | 0 mm | - | 351 W/m² | - |
| 1777230656 | 14.44° C | 71% | 1021.2 hPa | 0 mm | - | 340 W/m² | - |
| 1777230351 | 14.44° C | 71% | 1021.2 hPa | 0 mm | - | 711 W/m² | - |
| 1777230048 | 14.44° C | 73% | 1020.9 hPa | 0 mm | - | 721 W/m² | - |
| 1777229744 | 13.89° C | 73% | 1020.9 hPa | 0 mm | - | 596 W/m² | - |
| 1777229441 | 13.89° C | 73% | 1020.9 hPa | 0 mm | - | 265 W/m² | - |
| 1777229138 | 13.33° C | 75% | 1021.1 hPa | 0 mm | - | 301 W/m² | - |
| 1777228836 | 13.89° C | 74% | 1021.2 hPa | 0 mm | - | 303 W/m² | - |
| 1777228531 | 13.33° C | 73% | 1021.2 hPa | 0 mm | - | 378 W/m² | - |
| 1777228228 | 12.78° C | 75% | 1021.2 hPa | 0 mm | - | 337 W/m² | - |
| 1777227926 | 12.78° C | 75% | 1021.3 hPa | 0 mm | - | 302 W/m² | - |
| 1777227622 | 12.78° C | 75% | 1021.4 hPa | 0 mm | - | 328 W/m² | - |
| 1777227318 | 12.22° C | 77% | 1021.5 hPa | 0 mm | - | 291 W/m² | - |
| 1777227016 | 12.22° C | 77% | 1021.5 hPa | 0 mm | - | 282 W/m² | - |
| 1777226715 | 12.22° C | 76% | 1021.5 hPa | 0 mm | - | 275 W/m² | - |
| 1777226410 | 11.67° C | 77% | 1021.5 hPa | 0 mm | - | 262 W/m² | - |
| 1777226106 | 11.67° C | 77% | 1021.4 hPa | 0 mm | - | 267 W/m² | - |
| 1777225801 | 11.67° C | 78% | 1021.6 hPa | 0 mm | - | 247 W/m² | - |
| 1777225499 | 11.11° C | 79% | 1021.7 hPa | 0 mm | - | 236 W/m² | - |
| 1777225196 | 11.11° C | 79% | 1021.7 hPa | 0 mm | - | 262 W/m² | - |
| 1777224892 | 11.11° C | 80% | 1021.7 hPa | 0 mm | - | 203 W/m² | - |
| 1777224588 | 11.11° C | 80% | 1021.6 hPa | 0 mm | - | 187 W/m² | - |
| 1777224284 | 11.11° C | 80% | 1021.9 hPa | 0 mm | - | 182 W/m² | - |
* Rain latest hour (hover to see other rain measurements)
** Current wind speed in m/s (hover to see current wind gust speed)